Tracking 31027 objects as of 19-Jul-2025
HD Live streaming from Space Station
objects crossing your sky now

STARLINK-1423

Track STARLINK-1423 now!
10-day predictions
STARLINK-1423 is classified as:


NORAD ID: 45710
Int'l Code: 2020-035BF
Perigee: 553.7 km
Apogee: 555.1 km
Inclination: 53.1 °
Period: 95.6 minutes
Semi major axis: 6925 km
RCS: Unknown
Launch date: June 4, 2020
Source: United States (US)
Launch site: AIR FORCE EASTERN TEST RANGE (AFETR)
Your satellite tracking list
CZ-2C R/B
Track 1 satellite(s)




NASA's NSSDC Master Catalog

Two Line Element Set (TLE):
1 45710U 20035BF  25199.49577173  .00003527  00000-0  25558-3 0  9991
2 45710  53.0559   7.9546 0001023  77.2037 282.9066 15.06389814283853
Source of the keplerian elements: AFSPC